Showing default

COSMOS 203, 3129

Orbit data source: Space-Track

COSMOS 203, 3129 is a payload satellite owned by OKB-10 (CIS) in LEO that was launched on Tue, 20 Feb 1968 UTC via a KOSMOS 11K65M launch vehicle from the Plesetsk Missile And Space Complex (PKMTR). Payload-class satellites include a variety of spacecraft equipped with specific instruments for various scientific and technological missions. These include communications satellites like Starlink; space stations such as the ISS; scientific satellites like the Hubble; Earth observation satellites from companies like Planet Labs, Umbra, and HawkEye 360; GPS; miniature CubeSats for education and research; and military/defense satellites.

Loading next visibility...
Identifier
3129, 1968-011A
Orbit
LEO
Country
Flag of CISCIS
Related business
Manufacturer
OKB-10
Mission
Defense Geodetic
Bus & Motor
KAUR-1 11F621, Unknown motor
Mass
800 kg wet, 800 kg dry
Launch date (UTC)
1968-02-20 (58 years ago)
Launch vehicle
KOSMOS 11K65M
Launch site
Plesetsk Missile And Space Complex (PKMTR)
Object type
Payload
Rocket body
Debris
Shape & HBR
Cyl + 1 Rod, 8.5 m
Radar Cross Section
6.283 m², Large (>1 m²)

Expand to show TLE details & history
Last TLE update: 23 hours ago

TLE from 23 hours ago
0 COSMOS 203
1 03129U 68011A   25261.10824269 -.00000138  00000-0 -30340-3 0  9996
2 03129  74.0518 142.4816 0011925  31.3056 119.7701 13.18293579770125
Epoch: 2025-09-18T02:35Z
TLE epoch observation values (Epoch: 2025-09-18T02:35:52.168Z)
Latitude
27.64494°
Longitude
-82.32487°
Altitude
1,198.705 km
Speed
7.255 km/s
True Right ascension
20h 55m 40s
True Declination
27° 30' 43"
Sunlit
Object was in full shadow at epoch
Visualization orbit readout
Latitude
Unknown
Longitude
Unknown
Altitude
Unknown
Speed
Unknown
Apparent Right ascension
Unknown
Apparent Declination
Unknown
Sunlit
N/A
Visualization observer readout
Local Sidereal Time
18:53:02
Azimuth
Unknown
Elevation
Unknown
Doppler factor
Unknown
Orbital elements
Apogee altitude
1,198.024 km
Perigee altitude
1,179.976 km
Semi-major axis
7,567.137 km
Eccentricity
0.00119
Inclination
74.0518°
RAAN
142.4816°
Arg. of periapsis
31.3056°
True anomaly
119.88863°
Mean anomaly
119.7701°
Eccentric anomaly
119.82937°
Mean motion
3.2972 °/min
Orbital period
109.18 mins
BSTAR
-0.0003034
Loading maneuver chart data...
Computing Atmospheric mass density...
Loading historical data...
Loading historical data...
Loading historical data...
Loading historical data...
Loading historical data...
Loading historical data...
Loading historical data...
Other satellites on launch #11 in the year 1968 (1968-02-20 UTC)

Documentation

Showing up to 5 results
|